ファン・ネス彗星

213P/Van Ness (2017)

English version
Home page
Updated on March 3, 2018

---------------------------------------------------------------------

・ プロフィール

・ 写真集

・ 軌道要素

Epoch 2017 Sept. 4.0 TT = JDT 2458000.5
T 2017 Sept. 24.39906 TT                                MPCW
q   1.9834308            (2000.0)            P               Q
n   0.16092963     Peri.    5.55130     +0.72873131     +0.67130499
a   3.3474341      Node   311.32837     -0.63501999     +0.58850045
e   0.4074773      Incl.   10.37828     -0.25632069     +0.45057390
P   6.12
From 2995 observations 2005 Aug. 4-2017 Aug. 21, mean residual 0".5.
     Nongravitational parameters A1 = +1.55, A2 = +0.4400, A3 = -0.4864.

・ 星図

・ 光度変化

        m1 = -5.0 + 5 logΔ + 60   log r  [   ,-95]  (              〜2017年 6月21日)
        m1 =  8.0 + 5 logΔ + 20.0 log r  [-95,   ]  (2017年 6月21日〜              )

---------------------------------------------------------------------

軌道要素はM.P.E.C. 2017-X08に掲載されたものです。
星図はステラナビゲータ Ver.8 (アストロアーツ) で作成したものです。
光度グラフはComet for Windowsで作成したものです。

---------------------------------------------------------------------

Copyright(C) Seiichi Yoshida (comet@aerith.net). All rights reserved.